Overview Statistics Trail Chart Weather Telemetry Raw packets
 

This is the latest recevied weather packets stored in our database for station/object AB4BJ-10. If no packets are shown the sender has not sent any weather packets the latest 10 day(s).

<< 7 8 9 10 11 12 13 >>
Time Temp. Humidity Pressure Rain* Wind** Luminosity Snow
1788561777 33.89° C 57% 1009.7 hPa 0 mm - - -
1788561560 33.89° C 57% 1009.6 hPa 0 mm - - -
1788561476 33.89° C 57% 1009.6 hPa 0 mm - - -
1788560615 34.44° C 56% 1009.5 hPa 0 mm - - -
1788560576 34.44° C 56% 1009.5 hPa 0 mm - - -
1788560277 34.44° C 55% 1009.5 hPa 0 mm - - -
1788559677 34.44° C 56% 1009.3 hPa 0 mm - - -
1788559379 34.44° C 56% 1009.3 hPa 0 mm - - -
1788559074 34.44° C 56% 1009.4 hPa 0 mm - - -
1788558473 34.44° C 57% 1009.4 hPa 0 mm - - -
1788557272 34.44° C 56% 1009.5 hPa 0 mm - - -
1788556972 34.44° C 56% 1009.6 hPa 0 mm - - -
1788556671 34.44° C 58% 1009.7 hPa 0 mm - - -
1788556626 34.44° C 57% 1009.8 hPa 0 mm - - -
1788556371 34.44° C 57% 1009.8 hPa 0 mm - - -
1788556072 34.44° C 57% 1009.8 hPa 0 mm - - -
1788555771 34.44° C 56% 1009.8 hPa 0 mm - - -
1788555547 35° C 56% 1009.8 hPa 0 mm - - -
1788555470 35° C 56% 1009.8 hPa 0 mm - - -
1788555170 35° C 54% 1009.9 hPa 0 mm - - -
1788554570 35° C 55% 1009.9 hPa 0 mm - - -
1788553969 34.44° C 54% 1010 hPa 0 mm - - -
1788553861 34.44° C 58% 1010.2 hPa 0 mm - - -
1788553861 34.44° C 59% 1010.2 hPa 0 mm - - -
1788553670 34.44° C 58% 1010.2 hPa 0 mm - - -

* Rain latest hour (hover to see other rain measurements)
** Current wind speed in m/s (hover to see current wind gust speed)